This is the latest recevied weather packets stored in our database for station/object ANJALA. If no packets are shown the sender has not sent any weather packets the latest 10 day(s).
| Time | Temp. | Humidity | Pressure | Rain* | Wind** | Luminosity | Snow |
|---|---|---|---|---|---|---|---|
| 1777895230 | 9.44° C | 95% | - | 0.76 mm | - | - | - |
| 1777894029 | 10° C | 95% | - | 0.76 mm | - | - | - |
| 1777892829 | 10° C | 90% | - | 0.76 mm | - | - | - |
| 1777890429 | 12.22° C | 78% | - | 0 mm | - | - | - |
| 1777889229 | 13.33° C | 67% | - | 0 mm | - | - | - |
| 1777888029 | 13.89° C | 62% | - | 0 mm | - | - | - |
| 1777886829 | 15° C | 60% | - | 0 mm | - | - | - |
| 1777885629 | 15° C | 58% | - | 0 mm | - | - | - |
| 1777884429 | 14.44° C | 58% | - | 0 mm | - | - | - |
| 1777883229 | 14.44° C | 61% | - | 0 mm | - | - | - |
| 1777882029 | 13.89° C | 62% | - | 0 mm | - | - | - |
| 1777880829 | 13.33° C | 68% | - | 0 mm | - | - | - |
| 1777879629 | 12.78° C | 69% | - | 0 mm | - | - | - |
| 1777878428 | 12.78° C | 71% | - | 0 mm | - | - | - |
| 1777877229 | 12.22° C | 72% | - | 0 mm | - | - | - |
| 1777876028 | 11.67° C | 75% | - | 0 mm | - | - | - |
| 1777874828 | 11.11° C | 77% | - | 0 mm | - | - | - |
| 1777873628 | 11.11° C | 76% | - | 0 mm | - | - | - |
| 1777872428 | 11.11° C | 75% | - | 0 mm | - | - | - |
| 1777871228 | 10.56° C | 73% | - | 0 mm | - | - | - |
| 1777870028 | 10.56° C | 74% | - | 0 mm | - | - | - |
| 1777868828 | 10.56° C | 71% | - | 0 mm | - | - | - |
| 1777867628 | 9.44° C | 81% | - | 0 mm | - | - | - |
| 1777866428 | 8.89° C | 85% | - | 0 mm | - | - | - |
| 1777865228 | 8.33° C | 85% | - | 0 mm | - | - | - |
* Rain latest hour (hover to see other rain measurements)
** Current wind speed in m/s (hover to see current wind gust speed)